GW6128 Weather Reports


time (UTC)temp
F
wind
direction
speed
knots
gust
knots
rain 1hr
in
rain 24hr
in
rain mn
in
humidity
%
barometer
mb
20260506013045 49 0 0.9 4.3 0.00 0.00 0.00 83 1011.3
20260506011550 49 77 0.9 4.3 0.00 0.00 0.00 83 1011.2
20260506010053 50 72 0.9 3.5 0.00 0.00 0.00 82 1011.2
20260506004553 50 0 1.7 4.3 0.00 0.00 0.00 82 1011.4
20260506003054 50 98 2.6 7.0 0.00 0.00 0.00 82 1011.5
20260506001558 50 56 2.6 7.0 0.00 0.00 0.00 81 1011.5
20260506000058 50 82 0.0 5.2 0.00 0.00 0.00 80 1011.6
20260505234551 50 84 2.6 5.2 0.00 0.00 0.00 79 1011.4
20260505233101 51 70 1.7 7.0 0.00 0.00 0.00 79 1011.4
20260505231553 51 68 0.9 7.0 0.00 0.00 0.00 79 1011.6
20260505230054 51 61 2.6 6.1 0.00 0.00 0.00 79 1011.6
20260505224551 52 75 1.7 7.0 0.00 0.00 0.00 79 1011.6
20260505223050 52 68 1.7 6.1 0.00 0.00 0.00 80 1011.5
20260505221558 52 303 2.6 7.8 0.00 0.00 0.00 79 1011.4
20260505220054 52 86 1.7 5.2 0.00 0.00 0.00 82 1011.4
20260505214549 52 0 0.0 1.7 0.00 0.00 0.00 82 1011.4
20260505213049 53 80 0.0 1.7 0.00 0.00 0.00 80 1011.5
20260505211547 53 0 0.0 3.5 0.00 0.00 0.00 78 1011.4
20260505210051 53 83 0.9 3.5 0.00 0.00 0.00 77 1011.4
20260505204551 53 59 0.9 3.5 0.00 0.00 0.00 77 1011.6
20260505203052 53 67 1.7 4.3 0.00 0.00 0.00 77 1011.4
20260505201551 53 55 1.7 4.3 0.00 0.00 0.00 76 1011.3
20260505200048 53 41 1.7 5.2 0.00 0.00 0.00 75 1011.1
20260505194558 53 84 1.7 7.0 0.00 0.00 0.00 75 1010.8
20260505193105 54 41 3.5 7.0 0.00 0.00 0.00 73 1010.8
20260505191547 54 75 3.5 6.1 0.00 0.00 0.00 69 1010.6
20260505190053 54 60 1.7 6.1 0.00 0.00 0.00 67 1010.4
20260505184553 55 79 1.7 5.2 0.00 0.00 0.00 67 1010.3
20260505183052 55 87 3.5 9.6 0.00 0.00 0.00 64 1010.2
20260505181545 56 62 4.3 7.8 0.00 0.00 0.00 61 1010.3
20260505180052 56 51 1.7 4.3 0.00 0.00 0.00 70 1010.3
20260505174552 57 88 1.7 5.2 0.00 0.00 0.00 73 1010.2
20260505173047 57 26 0.9 4.3 0.00 0.00 0.00 73 1010.1
20260505171551 57 71 1.7 5.2 0.00 0.00 0.00 72 1010.2
20260505170046 57 127 3.5 8.7 0.00 0.00 0.00 70 1010.4
20260505164553 59 108 1.7 7.8 0.00 0.00 0.00 68 1010.4
20260505163052 59 67 1.7 7.0 0.00 0.00 0.00 65 1010.3
20260505161551 59 108 4.3 9.6 0.00 0.00 0.00 63 1010.3
20260505153102 57 110 2.6 7.0 0.00 0.00 0.00 74 1010.6
20260505151549 57 84 1.7 8.7 0.00 0.00 0.00 74 1010.5
20260505124559 60 190 3.5 7.8 0.00 0.00 0.00 63 1011.0
20260505123107 60 131 3.5 8.7 0.00 0.00 0.00 64 1010.9
20260505121551 60 163 3.5 7.8 0.00 0.00 0.00 62 1010.9
20260505120056 60 72 4.3 8.7 0.00 0.00 0.00 63 1010.8
20260505114550 60 161 1.7 5.2 0.00 0.00 0.00 63 1010.9
20260505113054 60 156 2.6 7.0 0.00 0.00 0.00 62 1011.0
20260505111552 60 103 1.7 7.0 0.00 0.00 0.00 58 1011.1
20260505101553 59 66 3.5 7.8 0.00 0.00 0.00 60 1011.5
20260505100053 59 169 0.9 7.0 0.00 0.00 0.00 64 1011.4
20260505094555 58 58 2.6 7.0 0.00 0.00 0.00 65 1011.4
20260505093052 57 87 1.7 5.2 0.00 0.00 0.00 68 1011.4
20260505091613 56 62 1.7 5.2 0.00 0.00 0.00 73 1011.5
20260505090119 55 79 0.9 3.5 0.00 0.00 0.00 76 1011.6
20260505084611 54 110 0.9 4.3 0.00 0.00 0.00 78 1011.8
20260505083104 53 79 0.9 6.1 0.00 0.00 0.00 79 1011.8
20260505081557 53 72 1.7 7.0 0.00 0.00 0.00 79 1011.9
20260505080059 53 89 2.6 6.1 0.00 0.00 0.00 79 1011.8
20260505074549 53 79 3.5 6.1 0.00 0.00 0.00 80 1011.8
20260505073054 52 59 3.5 7.8 0.00 0.00 0.00 82 1011.8
20260505071610 52 58 2.6 5.2 0.00 0.00 0.00 83 1011.9
20260505070052 51 29 1.7 5.2 0.00 0.00 0.00 88 1012.1
20260505064551 50 67 2.6 5.2 0.00 0.00 0.00 88 1012.0
20260505063053 50 76 0.9 4.3 0.00 0.00 0.00 89 1012.0
20260505061547 50 84 1.7 4.3 0.00 0.00 0.00 89 1012.0
20260505060100 50 53 0.0 2.6 0.00 0.00 0.00 88 1012.0
20260505054553 51 60 0.0 2.6 0.00 0.00 0.00 88 1012.2
20260505053051 50 0 0.0 0.0 0.00 0.00 0.00 90 1012.1
20260505051550 49 0 0.0 0.0 0.00 0.00 0.00 91 1012.1
20260505041554 49 0 0.0 0.0 0.00 0.00 0.00 91 1012.2
20260505040049 49 0 0.0 0.9 0.00 0.00 0.00 90 1012.2
20260505034548 50 84 0.0 1.7 0.00 0.00 0.00 90 1012.1
20260505033049 50 0 0.0 1.7 0.00 0.00 0.00 89 1012.3
20260505031551 50 51 0.0 2.6 0.00 0.00 0.00 89 1012.4
20260505030119 50 57 0.9 4.3 0.00 0.00 0.00 89 1012.5
20260505024559 51 63 0.9 5.2 0.00 0.00 0.00 89 1012.6
20260505023052 51 72 0.0 3.5 0.00 0.00 0.00 89 1012.5
20260505021552 51 68 0.9 4.3 0.00 0.00 0.00 89 1012.4
20260505020100 51 87 0.9 3.5 0.00 0.00 0.00 89 1012.4
20260505014603 51 64 0.9 1.7 0.00 0.00 0.00 89 1012.7